Belvedere, Italy

7:32 AM CET on February 28, 2017 (GMT +0100)
Urbe

Weather History for LIRU - January, 2014

Change the Weather History Date:

Wednesday, January 22, 2014

  Actual Average Record
Temperature  
Mean Temperature 48 °F -  
Max Temperature 53 °F 56 °F 66 °F (2003)
Min Temperature 44 °F 36 °F 30 °F (2016)
Degree Days  
Heating Degree Days 16    
Moisture  
Dew Point 48 °F    
Average Humidity 93    
Maximum Humidity 100    
Minimum Humidity 82    
Precipitation  
Precipitation 0.00 in 0.10 in - ()
Sea Level Pressure  
Sea Level Pressure 29.92 in    
Wind  
Wind Speed 3 mph ()    
Max Wind Speed 10 mph    
Max Gust Speed -    
Visibility 4.4 miles    
Events Rain    
Averages and records for this station are not official NWS values.
T = Trace of Precipitation, MM = Missing Value Source: Averaged Metar Reports

Daily Weather History Graph

Daily Weather History Graph

Search for Another Location

Airport or City:

Trip Planner

Search our weather history database for the weather conditions in past years. The results will help you decide how hot, cold, wet, or windy it might be!

Date:

Astronomy

Jan. 22, 2014 Rise Set
Actual Time 7:31 AM CET 5:12 PM CET
Civil Twilight 7:01 AM CET 5:42 PM CET
Nautical Twilight 6:27 AM CET 6:16 PM CET
Astronomical Twilight 5:54 AM CET 6:49 PM CET
Moon 11:34 PM CET (1/22) 10:17 AM CET (1/22)
Length of Visible Light 10h 41m
Length of Day
9h 40m
Waning Gibbous, 68% of the Moon is Illuminated
Jan 22
Waning Gibbous
Jan 24
Last Quarter
Jan 30
New
Feb 6
First Quarter
Feb 15
Full

Hourly Weather History & Observations

Time (CET) Temp. Dew Point Humidity Pressure Visibility Wind Dir Wind Speed Gust Speed Precip Events Conditions
7:28 AM 44.6 °F 44.6 °F 100% 29.89 in 2.2 mi Variable 2.3 mph - N/A   Mist
7:50 AM 44.6 °F 44.6 °F 100% 29.86 in 2.2 mi Variable 2.3 mph - N/A   Mist
8:19 AM 44.6 °F 44.6 °F 100% 29.89 in 3.1 mi Calm Calm - N/A   Mist
8:50 AM 46.4 °F 46.4 °F 100% 29.89 in 3.1 mi Variable 1.2 mph - N/A   Mist
9:50 AM 50.0 °F 50.0 °F 100% 29.89 in 3.1 mi Variable 3.5 mph - N/A   Mist
10:50 AM 51.8 °F 51.8 °F 100% 29.92 in 3.1 mi Calm Calm - N/A   Partly Cloudy
11:34 AM 53.6 °F 50.0 °F 88% 29.92 in 3.7 mi SSW 5.8 mph - N/A Rain Light Rain
11:50 AM 53.6 °F 50.0 °F 88% 29.92 in 3.7 mi Variable 3.5 mph - N/A Rain Light Rain
12:50 PM 51.8 °F 50.0 °F 94% 29.92 in 3.7 mi SSW 5.8 mph - N/A Rain Light Rain
1:50 PM 51.8 °F 50.0 °F 94% 29.89 in 3.7 mi SSE 6.9 mph - N/A Rain Light Rain
2:10 PM 53.6 °F 50.0 °F 88% 29.89 in 5.0 mi Variable 3.5 mph - N/A   Scattered Clouds
2:50 PM 53.6 °F 50.0 °F 88% 29.89 in 5.0 mi Variable 3.5 mph - N/A   Scattered Clouds
3:50 PM 53.6 °F 51.8 °F 94% 29.89 in 5.0 mi South 4.6 mph - N/A   Scattered Clouds
4:50 PM 53.6 °F 50.0 °F 88% 29.92 in 6.2 mi South 6.9 mph - N/A   Scattered Clouds
5:50 PM 51.8 °F 48.2 °F 88% 29.95 in 6.2 mi South 4.6 mph - N/A   Partly Cloudy
6:50 PM 51.8 °F 48.2 °F 88% 29.95 in 6.2 mi South 5.8 mph - N/A   Partly Cloudy
7:50 PM 51.8 °F 46.4 °F 82% 29.98 in 6.2 mi SE 10.4 mph - N/A   Partly Cloudy
8:50 PM 50.0 °F 46.4 °F 87% 29.98 in 6.2 mi ESE 8.1 mph - N/A   Partly Cloudy
9:50 PM 50.0 °F 48.2 °F 94% 30.01 in 6.2 mi ESE 6.9 mph - N/A Rain Rain Showers